Weather History for Columbia, MO

Change the Weather History Date:

Monday, January 28, 2013

  Actual Average Record
Temperature  
Mean Temperature 66 °F 30 °F  
Max Temperature 77 °F 39 °F 77 °F (2013)
Min Temperature 54 °F 21 °F -13 °F (1915)
Degree Days  
Heating Degree Days 0 35  
Month to date heating degree days 887 993  
Since 1 July heating degree days 2652 2988  
Cooling Degree Days 1 0  
Month to date cooling degree days 1 0  
Year to date cooling degree days 1 0  
Growing Degree Days 10 (Base 50)    
Moisture  
Dew Point 55 °F    
Average Humidity 74    
Maximum Humidity 93    
Minimum Humidity 54    
Precipitation  
Precipitation 0.00 in 0.07 in 1.16 in (1909)
Month to date precipitation 0.78 1.73  
Year to date precipitation 0.78 1.73  
Snow  
Snow 0.00 in 0.20 in 3.10 in (1973)
Month to date snowfall 0.5 5.5  
Since 1 July snowfall 4.2 10.8  
Snow Depth 0.00 in    
Sea Level Pressure  
Sea Level Pressure 29.86 in    
Wind  
Wind Speed 12 mph (South)    
Max Wind Speed 28 mph    
Max Gust Speed 33 mph    
Visibility 10 miles    
Events      
T = Trace of Precipitation, MM = Missing Value Source: NWS Daily Summary

Daily Weather History Graph

Daily Weather History Graph

Search for Another Location

Airport:

Trip Planner

Search our weather history database for the weather conditions in past years. The results will help you decide how hot, cold, wet, or windy it might be!

Date:

Astronomy

Jan. 28, 2013 Rise Set
Actual Time 7:18 AM CST 5:26 PM CST
Civil Twilight 6:49 AM CST 5:54 PM CST
Nautical Twilight 6:17 AM CST 6:26 PM CST
Astronomical Twilight 5:46 AM CST 6:57 PM CST
Moon 7:19 PM CST (1/28) 7:45 AM CST (1/28)
Length of Visible Light 11h 04m
Length of Day
10h 08m
Full, 98% of the Moon is Illuminated
Jan 28
Full
Feb 3
Last Quarter
Feb 10
New
Feb 17
First Quarter
Feb 25
Full

Hourly Weather History & Observations

Time (CST) Temp. Dew Point Humidity Pressure Visibility Wind Dir Wind Speed Gust Speed Precip Events Conditions
12:54 AM 55.9 °F 52.0 °F 87% 29.90 in 10.0 mi South 11.5 mph - N/A   Overcast
1:54 AM 55.9 °F 52.0 °F 87% 29.90 in 10.0 mi South 10.4 mph - N/A   Overcast
2:42 AM 55.9 °F 52.0 °F 87% 29.89 in 10.0 mi South 11.5 mph - N/A   Overcast
2:54 AM 55.9 °F 52.0 °F 87% 29.89 in 10.0 mi South 13.8 mph - N/A   Mostly Cloudy
3:54 AM 55.0 °F 52.0 °F 89% 29.88 in 10.0 mi South 5.8 mph - N/A   Partly Cloudy
4:20 AM 55.0 °F 52.0 °F 89% 29.88 in 10.0 mi South 8.1 mph - N/A   Mostly Cloudy
4:54 AM 55.9 °F 53.1 °F 90% 29.89 in 10.0 mi WSW 4.6 mph - N/A   Overcast
5:54 AM 55.0 °F 53.1 °F 93% 29.89 in 10.0 mi SSE 5.8 mph - N/A   Overcast
6:54 AM 55.9 °F 53.1 °F 90% 29.90 in 10.0 mi SSE 5.8 mph - N/A   Overcast
7:09 AM 55.9 °F 53.1 °F 90% 29.91 in 10.0 mi SSE 4.6 mph - N/A   Overcast
7:51 AM 57.2 °F 53.6 °F 88% 29.91 in 9.0 mi SE 5.8 mph - N/A   Overcast
7:54 AM 57.0 °F 54.0 °F 89% 29.91 in 9.0 mi SE 5.8 mph - N/A   Overcast
8:20 AM 57.0 °F 54.0 °F 89% 29.92 in 9.0 mi SE 5.8 mph - N/A   Overcast
8:54 AM 57.0 °F 54.0 °F 89% 29.92 in 8.0 mi SE 5.8 mph - N/A   Overcast
9:54 AM 62.1 °F 57.0 °F 84% 29.91 in 10.0 mi SSE 8.1 mph - N/A   Overcast
10:54 AM 64.9 °F 57.9 °F 78% 29.91 in 10.0 mi SSE 5.8 mph - N/A   Overcast
11:54 AM 71.1 °F 60.1 °F 68% 29.88 in 10.0 mi SSW 10.4 mph - N/A   Mostly Cloudy
12:54 PM 73.9 °F 57.9 °F 57% 29.84 in 10.0 mi SW 18.4 mph 26.5 mph N/A   Partly Cloudy
1:54 PM 75.9 °F 57.9 °F 54% 29.81 in 10.0 mi SW 18.4 mph 29.9 mph N/A   Partly Cloudy
2:54 PM 75.0 °F 57.9 °F 55% 29.81 in 10.0 mi SSW 23.0 mph 29.9 mph N/A   Partly Cloudy
3:54 PM 72.0 °F 57.9 °F 61% 29.82 in 10.0 mi SSW 17.3 mph 28.8 mph N/A   Scattered Clouds
4:54 PM 71.1 °F 57.0 °F 61% 29.81 in 10.0 mi SSW 16.1 mph - N/A   Clear
5:54 PM 69.1 °F 55.9 °F 63% 29.81 in 10.0 mi South 12.7 mph - N/A   Clear
6:54 PM 66.0 °F 55.9 °F 70% 29.81 in 10.0 mi South 12.7 mph - N/A   Clear
7:54 PM 68.0 °F 55.9 °F 65% 29.80 in 10.0 mi South 16.1 mph - N/A   Mostly Cloudy
8:54 PM 68.0 °F 55.9 °F 65% 29.79 in 10.0 mi South 18.4 mph - N/A   Mostly Cloudy
9:54 PM 66.9 °F 57.0 °F 70% 29.77 in 10.0 mi South 18.4 mph 28.8 mph N/A   Clear
10:54 PM 66.0 °F 57.0 °F 73% 29.77 in 10.0 mi South 15.0 mph 29.9 mph N/A   Partly Cloudy
11:54 PM 66.0 °F 57.9 °F 75% 29.77 in 10.0 mi South 16.1 mph - N/A   Overcast